Weather History for Galesburg, IL

Change the Weather History Date:

Sunday, January 6, 2013

  Actual Average Record
Temperature  
Mean Temperature 23 °F -  
Max Temperature 31 °F 29 °F 64 °F (2008)
Min Temperature 15 °F 13 °F -15 °F (2014)
Degree Days  
Heating Degree Days 42    
Moisture  
Dew Point 18 °F    
Average Humidity 84    
Maximum Humidity 95    
Minimum Humidity 71    
Precipitation  
Precipitation 0.00 in - - ()
Sea Level Pressure  
Sea Level Pressure 30.20 in    
Wind  
Wind Speed 14 mph (West)    
Max Wind Speed 25 mph    
Max Gust Speed 30 mph    
Visibility 10 miles    
Events      
Averages and records for this station are not official NWS values.
T = Trace of Precipitation, MM = Missing Value Source: NWS Daily Summary

Daily Weather History Graph

Daily Weather History Graph

Search for Another Location

Airport:

Trip Planner

Search our weather history database for the weather conditions in past years. The results will help you decide how hot, cold, wet, or windy it might be!

Date:

Astronomy

Jan. 06, 2013 Rise Set
Actual Time 7:26 AM CST 4:49 PM CST
Civil Twilight 6:55 AM CST 5:19 PM CST
Nautical Twilight 6:21 AM CST 5:54 PM CST
Astronomical Twilight 5:48 AM CST 6:27 PM CST
Moon 1:40 AM CST (1/6) 12:17 PM CST (1/6)
Length of Visible Light 10h 24m
Length of Day
9h 22m
Waning Crescent, 33% of the Moon is Illuminated
Jan 6
Waning Crescent
Jan 11
New
Jan 18
First Quarter
Jan 26
Full
Feb 3
Last Quarter

Hourly Weather History & Observations

Time (CST) Temp. Windchill Dew Point Humidity Pressure Visibility Wind Dir Wind Speed Gust Speed Precip Events Conditions
12:15 AM 31.1 °F 18.6 °F 25.9 °F 81% 29.99 in 10.0 mi West 20.7 mph 25.3 mph N/A   Overcast
12:35 AM 30.2 °F 19.3 °F 25.5 °F 83% 29.99 in 10.0 mi WNW 15.0 mph 21.9 mph N/A   Overcast
12:55 AM 28.9 °F 16.5 °F 23.9 °F 81% 30.00 in 10.0 mi West 18.4 mph 25.3 mph N/A   Mostly Cloudy
1:15 AM 28.6 °F 16.0 °F 23.7 °F 82% 30.01 in 10.0 mi West 18.4 mph - N/A   Mostly Cloudy
1:35 AM 28.2 °F 15.5 °F 23.0 °F 81% 30.02 in 10.0 mi West 18.4 mph 23.0 mph N/A   Overcast
1:55 AM 27.9 °F 15.9 °F 23.0 °F 82% 30.02 in 10.0 mi West 16.1 mph - N/A   Overcast
2:15 AM 27.3 °F 14.4 °F 23.0 °F 84% 30.02 in 10.0 mi West 18.4 mph - N/A   Overcast
2:35 AM 27.1 °F 14.9 °F 22.6 °F 83% 30.03 in 10.0 mi West 16.1 mph - N/A   Overcast
2:55 AM 26.8 °F 14.1 °F 21.7 °F 81% 30.03 in 10.0 mi West 17.3 mph 20.7 mph N/A   Overcast
3:15 AM 26.6 °F 15.2 °F 22.1 °F 83% 30.03 in 10.0 mi West 13.8 mph 19.6 mph N/A   Overcast
3:35 AM 26.6 °F 14.3 °F 22.5 °F 84% 30.03 in 10.0 mi West 16.1 mph 21.9 mph N/A   Overcast
3:55 AM 26.6 °F 12.4 °F 21.9 °F 82% 30.04 in 10.0 mi West 21.9 mph 28.8 mph N/A   Overcast
4:15 AM 26.4 °F 11.2 °F 21.2 °F 81% 30.05 in 10.0 mi WNW 25.3 mph 28.8 mph N/A   Overcast
4:35 AM 24.4 °F 9.5 °F 19.2 °F 81% 30.06 in 10.0 mi West 21.9 mph 29.9 mph N/A   Overcast
4:55 AM 23.9 °F 9.9 °F 19.2 °F 82% 30.07 in 10.0 mi West 18.4 mph 26.5 mph N/A   Overcast
5:15 AM 23.0 °F 8.7 °F 18.0 °F 81% 30.08 in 10.0 mi West 18.4 mph 27.6 mph N/A   Overcast
5:35 AM 22.1 °F 6.0 °F 17.6 °F 83% 30.09 in 10.0 mi West 23.0 mph 27.6 mph N/A   Overcast
5:55 AM 21.4 °F 6.2 °F 17.1 °F 83% 30.09 in 10.0 mi West 19.6 mph - N/A   Overcast
6:15 AM 20.8 °F 5.9 °F 16.7 °F 84% 30.10 in 10.0 mi West 18.4 mph 25.3 mph N/A   Overcast
6:35 AM 19.8 °F 6.5 °F 16.3 °F 87% 30.11 in 10.0 mi WNW 13.8 mph 21.9 mph N/A   Mostly Cloudy
6:55 AM 18.9 °F 4.8 °F 15.8 °F 88% 30.12 in 10.0 mi WNW 15.0 mph 20.7 mph N/A   Mostly Cloudy
7:15 AM 18.5 °F 3.8 °F 14.9 °F 86% 30.13 in 10.0 mi WNW 16.1 mph 24.2 mph N/A   Mostly Cloudy
7:35 AM 18.5 °F 3.3 °F 15.1 °F 86% 30.14 in 7.0 mi WNW 17.3 mph 23.0 mph N/A   Overcast
7:55 AM 18.5 °F 2.4 °F 15.4 °F 88% 30.15 in 7.0 mi WNW 19.6 mph 25.3 mph N/A   Overcast
8:15 AM 18.5 °F 3.8 °F 15.4 °F 88% 30.16 in 7.0 mi WNW 16.1 mph 21.9 mph N/A   Mostly Cloudy
8:35 AM 19.2 °F 5.3 °F 15.8 °F 87% 30.17 in 10.0 mi WNW 15.0 mph - N/A   Scattered Clouds
8:55 AM 19.6 °F 5.2 °F 16.0 °F 86% 30.18 in 10.0 mi WNW 16.1 mph 23.0 mph N/A   Mostly Cloudy
9:15 AM 20.1 °F 5.4 °F 16.3 °F 85% 30.19 in 10.0 mi West 17.3 mph 24.2 mph N/A   Overcast
9:35 AM 21.0 °F 6.6 °F 16.7 °F 83% 30.20 in 10.0 mi WNW 17.3 mph - N/A   Mostly Cloudy
9:55 AM 21.2 °F 7.8 °F 16.9 °F 83% 30.21 in 10.0 mi West 15.0 mph - N/A   Mostly Cloudy
10:15 AM 21.9 °F 8.2 °F 17.1 °F 82% 30.22 in 10.0 mi West 16.1 mph - N/A   Overcast
10:35 AM 22.3 °F 9.2 °F 17.8 °F 83% 30.22 in 10.0 mi WNW 15.0 mph 23.0 mph N/A   Overcast
10:55 AM 22.5 °F 9.4 °F 18.0 °F 83% 30.22 in 10.0 mi West 15.0 mph - N/A   Mostly Cloudy
11:15 AM 23.0 °F 10.1 °F 18.5 °F 83% 30.23 in 10.0 mi West 15.0 mph 19.6 mph N/A   Mostly Cloudy
11:35 AM 23.9 °F 10.8 °F 19.4 °F 83% 30.23 in 10.0 mi West 16.1 mph - N/A   Overcast
11:55 AM 23.5 °F 11.3 °F 18.7 °F 82% 30.23 in 10.0 mi WNW 13.8 mph 20.7 mph N/A   Overcast
12:15 PM 25.2 °F 13.3 °F 19.2 °F 78% 30.23 in 10.0 mi West 13.8 mph - N/A   Mostly Cloudy
12:35 PM 25.7 °F 14.6 °F 19.6 °F 78% 30.23 in 10.0 mi West 12.7 mph - N/A   Scattered Clouds
12:55 PM 26.2 °F 15.2 °F 19.4 °F 75% 30.22 in 10.0 mi WNW 12.7 mph 20.7 mph N/A   Scattered Clouds
1:15 PM 26.6 °F 15.2 °F 19.6 °F 75% 30.23 in 10.0 mi WNW 13.8 mph 17.3 mph N/A   Clear
1:35 PM 27.5 °F 16.8 °F 20.5 °F 75% 30.23 in 10.0 mi West 12.7 mph - N/A   Clear
1:55 PM 28.4 °F 18.5 °F 20.8 °F 73% 30.24 in 10.0 mi WNW 11.5 mph 17.3 mph N/A   Clear
2:15 PM 28.2 °F 18.3 °F 20.5 °F 73% 30.24 in 10.0 mi West 11.5 mph - N/A   Clear
2:35 PM 28.2 °F 17.2 °F 20.1 °F 72% 30.25 in 10.0 mi WNW 13.8 mph - N/A   Clear
2:55 PM 28.8 °F 18.4 °F 20.8 °F 72% 30.25 in 10.0 mi West 12.7 mph - N/A   Clear
3:15 PM 28.4 °F 18.0 °F 20.1 °F 71% 30.26 in 10.0 mi WNW 12.7 mph - N/A   Clear
3:35 PM 28.2 °F 17.7 °F 20.1 °F 72% 30.27 in 10.0 mi West 12.7 mph - N/A   Clear
3:55 PM 28.0 °F 18.6 °F 20.3 °F 73% 30.28 in 10.0 mi West 10.4 mph - N/A   Clear
4:15 PM 27.3 °F 19.1 °F 20.3 °F 75% 30.28 in 10.0 mi West 8.1 mph - N/A   Clear
4:35 PM 26.6 °F 19.1 °F 19.8 °F 75% 30.29 in 10.0 mi West 6.9 mph - N/A   Clear
4:55 PM 25.0 °F 19.3 °F 19.4 °F 79% 30.29 in 10.0 mi WSW 4.6 mph - N/A   Clear
5:15 PM 23.7 °F 17.8 °F 19.0 °F 82% 30.30 in 10.0 mi West 4.6 mph - N/A   Clear
5:35 PM 23.0 °F 15.8 °F 18.7 °F 84% 30.30 in 10.0 mi West 5.8 mph - N/A   Clear
5:55 PM 22.1 °F 15.9 °F 18.1 °F 85% 30.31 in 10.0 mi West 4.6 mph - N/A   Clear
6:15 PM 22.3 °F - 18.5 °F 85% 30.31 in 10.0 mi Calm Calm - N/A   Clear
6:35 PM 19.4 °F - 16.9 °F 90% 30.32 in 10.0 mi Calm Calm - N/A   Clear
6:55 PM 17.6 °F - 15.8 °F 93% 30.33 in 10.0 mi Calm Calm - N/A   Clear
7:15 PM 16.3 °F - 14.2 °F 91% 30.32 in 10.0 mi Calm Calm - N/A   Clear
7:35 PM 17.6 °F - 15.8 °F 93% 30.32 in 10.0 mi Calm Calm - N/A   Clear
7:55 PM 17.2 °F - 16.0 °F 95% 30.32 in 10.0 mi Calm Calm - N/A   Clear
8:15 PM 16.3 °F - 15.1 °F 95% 30.33 in 10.0 mi Calm Calm - N/A   Clear
8:35 PM 16.3 °F - 14.7 °F 93% 30.32 in 10.0 mi Calm Calm - N/A   Clear
8:55 PM 15.8 °F 10.2 °F 14.2 °F 93% 30.32 in 10.0 mi SSW 3.5 mph - N/A   Clear
9:15 PM 15.8 °F - 14.4 °F 94% 30.33 in 10.0 mi Calm Calm - N/A   Clear
9:35 PM 15.8 °F - 14.0 °F 93% 30.33 in 10.0 mi Calm Calm - N/A   Clear
9:55 PM 16.0 °F 10.4 °F 14.5 °F 94% 30.32 in 10.0 mi SSE 3.5 mph - N/A   Clear
10:15 PM 16.7 °F - 13.8 °F 88% 30.32 in 10.0 mi Calm Calm - N/A   Clear
10:35 PM 15.4 °F 9.8 °F 13.6 °F 93% 30.32 in 10.0 mi South 3.5 mph - N/A   Clear
10:55 PM 17.4 °F 9.1 °F 14.9 °F 90% 30.32 in 10.0 mi SSE 5.8 mph - N/A   Clear
11:15 PM 17.6 °F 9.3 °F 15.8 °F 93% 30.31 in 10.0 mi South 5.8 mph - N/A   Clear
11:35 PM 17.1 °F 11.7 °F 14.2 °F 88% 30.32 in 10.0 mi South 3.5 mph - N/A   Clear
11:55 PM 16.9 °F 11.5 °F 14.4 °F 90% 30.31 in 10.0 mi South 3.5 mph - N/A   Clear